Powrót do katalogu

COSMOS 2251 DEB

AktywnyLEO
NORAD 34129·DEBRIS·🇷🇺 Russia

Wystrzelony Jun 16, 1993 z Plesetsk Cosmodrome

Loading…

Następne Przeloty (najbliższe 24 godziny)

TLE

ŚwieżeSource: Space-Track

Epoka: Sep 14, 2026, 03:24 UTC

1 34129U 93036LA  26257.14230922  .00004416  00000-0  58370-3 0  9996
2 34129  74.0323 158.5328 0033729 175.5461 184.6022 14.79903496653677

Śledź COSMOS 2251 DEB w czasie rzeczywistym z AllMySat

Download on the App Store